FLOCK 3R-16 (43735 NORAD) Tracking and Keplerian Element Data

This shows tracking and keplerian element data for the satellite.

Feedback or suggestion? Click here.




ElementValue
Catalog43735
NameFLOCK 3R-16
Epoch Orbit173
Epoch Day344.49946265
Epoch Year2018
RAAN49.5162
Inclination97.4837
Eccentricity0.002059
Argument of Perigee290.5448
Mean Anonmoly69.3581
Mean Motion15.26881358
Decay Rate3.075E-05
L11 43735U 18096S 18344.49946265 .00003075 00000-0 11869-3 0 9994
L22 43735 97.4837 49.5162 0020590 290.5448 69.3581 15.26881358 1737

Live tracking and technical data element details for FLOCK 3R-16 (NORAD 43735). FLOCK 3R-16 can be tracked NOW for your location showing map with azimuth and elevation plus other details from your city location.

Track the satellite on the map from your city or location and see movement details for azimuth, elevation, latitude, longitude, range, height, and movement on the map or in text.







IsCatalogInMostPopularTable: catalog: 43735, numindb: 6
Update: records affected: 1



GetName: 43735 FLOCK 3R-16

Hit Count: updated at: Tue, 11 Dec 2018 02:40:04 GMT